Lid_Strength_Index
13 17 20 18 17 17 17 18 18 16 15 17 17 17 15 13 15 15 15 15 14 13 11 11 11 11 11 11 11 11 11 11 12 13 13 13 13 13 13 12 11 11 11 11
15 19 15 14 14 16 17 19 20 16 16 17 18 17 15 14 15 15 15 15 14 13 12 11 11 11 11 11 11 11 11 11 11 12 13 13 13 13 13 12 12 11 11 10
16 15 13 14 16 17 18 19 19 19 17 18 19 20 18 16 15 14 14 14 14 13 13 12 12 12 12 12 12 11 11 11 11 11 12 12 13 13 13 13 12 11 10 10
16 14 14 16 17 17 19 17 17 18 22 24 19 24 19 18 16 15 15 15 14 13 13 12 12 12 12 11 11 11 11 10 11 11 12 13 14 14 14 13 12 11 10 10
16 15 16 16 16 15 17 16 17 18 24 24 22 26 20 17 17 16 15 14 14 13 13 12 12 11 11 11 12 11 11 11 10 11 11 12 13 13 13 13 12 11 11 11
14 12 14 14 14 14 14 16 17 19 25 27 26 24 20 17 17 16 15 14 13 13 13 12 12 11 12 12 12 12 11 11 10 11 12 13 14 14 13 13 13 12 12 12
15 15 13 13 15 14 16 22 25 24 25 24 28 24 18 16 15 14 14 14 14 13 13 13 12 12 12 12 12 12 12 11 11 12 13 13 13 12 13 13 13 13 12 12
23 21 18 13 15 16 17 20 23 28 25 23 27 25 17 15 14 14 13 13 13 14 13 13 12 13 13 12 12 13 12 12 12 13 13 13 12 12 12 12 12 12 12 11
22 20 14 14 14 15 18 24 18 26 31 28 23 20 15 15 16 15 14 14 14 14 13 13 13 13 13 13 13 13 13 12 13 13 14 13 12 12 13 13 12 12 11 10
17 22 18 14 14 15 18 16 23 25 28 30 25 27 18 18 18 17 15 15 14 14 13 13 12 12 12 12 13 13 13 13 13 14 13 12 12 13 13 12 12 12 11 11
18 21 20 16 21 21 21 23 22 22 21 25 28 22 18 18 17 18 16 15 15 15 14 14 13 12 12 13 13 13 13 14 14 13 12 13 13 13 13 12 13 11 11 11
15 18 24 19 16 15 17 20 19 22 25 24 23 22 18 16 21 23 18 15 16 17 14 16 14 13 13 13 13 14 14 14 14 13 13 13 13 13 13 13 12 11 11 11
15 22 27 21 19 17 19 17 17 21 19 24 25 20 20 23 20 18 19 18 16 15 16 15 15 15 13 13 14 14 14 14 14 13 13 13 13 13 14 13 12 11 12 12
12 16 21 22 23 22 22 19 17 19 27 22 20 17 17 15 17 16 18 18 18 17 16 15 17 16 15 15 16 16 15 14 14 13 13 14 14 14 13 13 12 12 12 12
15 20 18 18 19 21 19 20 20 20 19 21 17 17 16 14 13 12 12 17 17 15 14 14 14 13 16 18 18 17 17 17 17 16 18 16 16 15 13 13 12 12 12 12
14 19 21 19 16 16 18 16 16 17 16 16 16 17 11 11 10 14 16 17 16 13 11 14 15 17 17 17 17 17 18 19 19 19 18 21 20 13 15 13 12 12 12 12
15 17 21 20 20 22 21 18 16 16 15 15 18 15 13 13 12 13 13 14 12 11 11 14 15 15 16 16 17 18 18 22 21 20 21 21 19 13 14 13 13 13 13 12
15 15 16 19 23 24 18 17 17 18 16 15 14 13 12 12 11 17 14 12 11 12 12 14 14 17 17 22 22 23 23 22 21 21 21 23 19 13 13 13 13 13 13 13
13 15 18 20 21 19 17 15 14 15 16 13 13 12 11 11 12 13 11 10 10 10 10 12 14 16 20 20 23 22 26 24 23 21 21 21 19 14 13 13 13 14 14 14
16 14 17 25 21 24 19 16 14 13 19 12 11 12 12 13 14 12 10 11 10 10 10 12 13 14 14 15 17 19 22 23 21 20 19 20 20 14 15 13 13 14 14 14
25 22 20 19 20 19 15 13 13 18 16 12 10 10 10 11 10 10 9 9 11 11 11 11 13 13 13 14 16 16 18 20 18 17 18 19 20 18 17 15 13 14 14 14
22 25 27 27 22 24 13 13 14 12 10 9 8 8 9 9 9 8 8 9 10 11 11 11 12 13 13 14 15 16 17 16 17 17 16 16 17 16 16 15 13 19 20 20
24 20 23 21 20 14 13 12 11 10 10 9 9 8 8 8 9 8 7 8 6 8 9 12 12 13 14 14 15 15 15 16 17 18 17 17 17 16 15 16 16 18 19 19
19 16 19 18 17 14 13 12 10 9 9 8 7 7 6 9 9 9 8 8 7 6 7 10 15 14 13 15 15 15 18 17 18 18 18 17 18 18 18 15 16 17 18 19
16 17 18 18 15 13 12 10 9 9 8 8 8 7 7 8 10 9 8 8 8 6 6 10 10 11 11 13 15 16 17 17 17 18 18 17 17 18 18 17 16 16 17 16
14 16 18 18 12 12 11 9 8 9 9 9 9 9 8 8 9 8 8 7 7 8 7 10 11 11 11 12 14 15 17 17 17 18 18 17 17 18 17 17 17 12 13 12